[ hide orbit diagram ]
For accurate long-term ephemerides, please instead use our Horizons system.This orbit viewer was implemented using two-body methods, and hence should not be used for determining accurate long-term trajectories (over several years or decades) or planetary encounter circumstances.
Orbital Elements at Epoch 2459200.5 (2020-Dec-17.0) TDB
Reference: JPL 26 (heliocentric ecliptic J2000)
Element | Value | Uncertainty (1-sigma) | Units |
e | .1628850973810105 | 2.8551e-08 | |
a | 2.312138676880915 | 5.9516e-09 | au |
q | 1.935525743338766 | 6.5775e-08 | au |
i | 3.000891458628764 | 3.0833e-06 | deg |
node | 230.0156617443268 | 6.7559e-05 | deg |
peri | 59.35139955782346 | 6.8504e-05 | deg |
M | 160.717259470067 | 1.0635e-05 | deg |
tp | 2458627.203537250512 (2019-May-23.70353725) | 3.7887e-05 | TDB |
period | 1284.160315266292 3.52 | 4.9583e-06 1.358e-08 | d yr |
n | .2803388297553395 | 1.0824e-09 | deg/d |
Q | 2.688751610423064 | 6.921e-09 | au |
|
| | Orbit Determination Parameters
Additional Information
|
[ show covariance matrix ]
Physical Parameter Table
Parameter |
Symbol |
Value |
Units |
Sigma |
Reference |
Notes |
absolute magnitude |
H |
15.2 |
|
n/a |
MPO247569 |
|
rotation period |
rot_per |
0.97 |
h |
n/a |
LCDB (Rev. 2020-October); Warner et al., 2009 |
lower-limit; Incomplete or inconclusive result. Published Reference List: [Erasmus, N.; McNeill, A.; Mommert, M.; Trilling, D.E.; et al. (2018) Ap. J. Suppl. Series 237, A19.] [Erasmus, N.; McNeill, A.; Mommert, N.; Trilling, D.E.; et al. (2019) Ap. J. Suppl. Series 242, A15.] |
|
25038 Matebezdek | Discovered 1998 Aug. 17 by the Lincoln Laboratory Near-Earth Asteroid Research Team at Socorro. |
Mate Jozsef Bezdek (b. 1991) was awarded second place in the 2008 Intel International Science and Engineering Fair for his mathematical sciences project. He attends the Notre Dame High School, Calgary, Alberta, Canada. |
NOTE: some special characters may not display properly (any characters within {} are an attempt to place the proper accent above a character) |
Reference: 20080917/MPCPages.arc | Last Updated: 2008-09-19 |
|
[ show close-approach data ]
|